RH
29 29 28 28 26 25 24 23 22 20 17 14 11 9 8 9 9 10 10 11 13 14 15 15 14 14 14 13 14 15 14 13 12 8 6 7 5 4 4 5 4 5 6 7 8 9 11 12 14 15 17 18 17 22 30 37 41 45 52 53 50 54 54 49 46 45 45 44 45 47 48 47 50 50 45 46 50 55 58 55 56 58 54 53 54 54 50 48
30 30 29 29 28 27 26 25 23 22 21 19 17 13 10 8 8 9 9 10 10 11 13 13 14 14 14 14 14 14 14 14 12 9 10 10 5 3 4 4 4 4 5 7 8 9 10 12 13 15 17 18 20 24 30 36 38 43 50 49 50 55 53 52 52 48 46 45 43 43 47 48 49 51 48 44 45 50 53 50 53 55 53 53 51 51 52 49
31 30 30 29 29 29 28 27 26 24 23 21 20 19 16 12 9 8 8 9 9 9 10 11 12 13 14 14 14 14 13 14 12 10 10 9 6 4 4 3 4 4 5 6 7 8 9 11 12 15 17 18 21 25 29 35 39 44 48 46 50 55 55 56 57 53 50 49 45 42 45 47 49 52 50 47 44 46 48 47 50 54 51 51 49 47 50 51
32 31 31 30 30 29 28 28 27 26 25 23 22 21 20 18 14 11 8 8 8 8 9 10 10 12 13 13 14 14 13 13 11 11 11 9 7 5 4 3 4 4 5 6 7 7 8 10 12 14 17 17 20 24 27 30 36 44 45 46 52 55 55 58 57 53 53 51 48 48 49 49 50 51 50 48 43 42 45 43 46 53 52 49 47 45 45 49
33 32 32 31 31 30 29 28 27 27 26 25 24 22 21 20 19 16 12 9 8 8 8 9 9 9 11 11 14 14 14 13 11 12 12 10 8 5 4 4 4 4 5 6 6 7 7 9 12 14 16 17 18 21 23 25 31 37 40 47 55 55 55 59 55 50 51 50 49 51 53 53 54 53 49 46 43 42 44 40 41 49 53 52 50 46 42 44
32 32 32 32 31 31 30 29 28 27 26 26 25 24 23 22 20 18 16 13 10 8 8 8 9 8 9 9 11 13 14 13 13 15 16 14 11 8 5 4 4 4 5 5 6 6 7 9 11 14 15 16 18 19 21 24 28 30 36 46 53 55 56 56 53 51 51 48 49 50 49 51 53 54 50 46 44 42 41 39 39 44 48 52 52 49 42 39
31 31 31 31 31 31 31 30 29 28 27 26 25 24 24 23 21 19 19 18 15 11 8 8 8 8 8 8 9 11 11 11 14 19 18 16 16 14 9 6 4 4 5 5 6 6 6 8 11 13 15 17 18 18 19 24 27 27 34 45 51 53 54 54 53 52 51 49 50 45 41 43 46 51 50 44 43 42 41 39 36 37 38 42 46 48 45 38
30 30 30 30 31 31 30 30 29 29 28 27 26 25 24 23 22 21 21 21 20 16 11 8 8 8 8 7 8 9 9 11 14 16 14 13 17 17 11 8 6 4 5 5 5 5 6 7 10 13 14 16 19 18 18 22 23 23 31 44 52 52 52 55 54 50 49 50 49 43 38 38 39 48 45 38 44 46 43 41 36 34 35 37 40 47 46 40
30 30 30 30 30 30 30 30 29 29 29 28 27 25 24 24 23 23 23 22 22 19 15 11 8 8 7 7 8 6 8 14 16 14 12 12 15 17 12 8 7 5 5 5 5 5 5 6 9 13 15 17 18 18 19 21 22 22 28 39 48 51 52 55 52 48 49 48 46 40 35 33 34 42 40 35 45 49 44 42 39 35 36 35 36 45 46 41
31 31 31 31 30 30 30 29 29 29 30 29 28 26 25 25 25 24 24 23 22 21 19 16 11 8 7 7 7 6 8 13 15 14 13 12 13 15 12 8 7 6 6 5 5 4 4 5 8 12 15 16 17 18 19 20 23 24 28 34 41 47 49 52 50 47 48 45 41 35 30 31 35 39 37 35 40 45 45 42 40 38 37 36 34 41 48 44
29 30 30 31 31 31 30 29 29 29 29 29 28 27 26 26 26 26 25 24 23 22 21 19 16 12 9 7 6 6 8 10 12 14 13 12 12 13 12 10 7 5 6 6 5 4 4 6 10 13 14 17 18 19 20 20 22 24 26 29 35 41 45 49 48 45 45 42 37 32 28 30 34 35 34 36 40 42 45 42 40 41 39 38 34 37 45 47
23 25 26 27 29 30 30 30 29 29 29 28 27 27 27 27 27 26 26 25 24 23 22 22 20 17 13 9 7 8 8 9 11 12 13 12 12 12 12 13 9 5 6 5 4 4 6 11 13 14 15 18 19 19 21 22 22 23 23 25 28 35 42 46 45 44 43 40 36 31 29 29 31 33 32 36 40 41 45 44 40 41 42 41 36 33 40 47
14 16 18 20 22 25 27 28 29 29 29 28 27 27 27 27 27 27 27 26 25 25 23 23 22 20 18 11 7 9 9 9 10 11 13 12 13 12 11 13 10 8 8 7 7 7 12 17 15 15 17 19 19 19 22 25 23 22 21 22 23 28 37 42 44 44 42 39 34 31 32 30 28 30 31 33 38 38 40 44 41 39 42 43 39 33 33 41
7 8 9 11 13 16 19 22 25 27 28 28 27 27 27 27 27 27 27 27 26 25 24 24 23 22 20 13 8 8 8 9 10 11 12 12 14 14 13 13 11 12 14 15 17 17 20 23 22 24 24 21 20 19 22 27 29 27 24 23 23 28 36 41 43 42 39 36 33 31 32 31 27 28 29 30 35 37 36 38 39 38 39 43 43 36 30 33
4 4 5 5 6 8 10 14 17 20 23 26 27 27 27 27 27 27 27 27 27 27 25 24 24 22 20 16 11 8 7 8 9 11 13 13 15 16 16 16 14 15 18 20 23 22 24 27 28 32 30 24 20 18 20 25 31 34 36 37 31 30 35 39 41 40 38 35 31 31 31 30 29 27 25 25 27 33 36 35 36 37 37 40 43 40 32 30
2 2 3 3 3 4 5 7 9 11 15 19 23 25 26 26 26 26 27 27 27 28 27 25 24 23 21 19 16 12 8 7 8 11 13 14 17 19 21 22 20 19 20 23 25 24 23 24 25 27 26 23 19 16 16 19 26 35 44 47 40 34 34 36 38 37 35 33 30 30 30 29 28 25 23 23 22 27 32 35 35 35 36 37 41 43 36 30
2 2 2 2 2 2 3 4 5 5 7 10 15 19 23 25 25 26 26 26 27 27 28 27 25 24 21 19 17 15 11 8 8 10 11 14 18 21 23 26 25 21 20 22 25 25 24 22 21 21 20 18 16 14 15 17 18 28 42 47 42 37 35 35 36 34 32 32 30 29 29 28 27 25 23 22 23 25 28 32 33 33 34 35 38 41 39 32
2 1 2 2 1 2 2 2 2 3 4 5 7 11 15 20 23 25 25 25 25 26 28 27 25 24 22 19 18 17 13 9 7 8 10 13 17 22 25 26 26 25 23 22 22 24 25 23 21 20 18 15 15 13 15 18 15 19 34 43 43 38 35 35 36 34 32 30 30 29 29 28 27 26 24 23 25 26 27 32 33 32 32 32 34 36 37 34
2 1 2 1 1 1 1 1 1 2 2 3 4 5 7 12 17 21 23 24 24 26 27 26 24 24 21 19 18 17 16 12 9 7 9 12 16 23 27 27 28 28 26 25 23 22 23 23 22 20 17 13 12 12 12 15 14 13 22 34 41 40 34 33 34 35 33 30 30 30 30 29 28 26 23 23 27 30 30 32 34 33 31 31 31 32 33 32
2 2 1 1 1 1 1 1 1 1 1 2 2 3 4 6 9 14 18 22 23 24 26 25 24 23 22 21 18 17 17 15 12 8 9 12 16 23 27 28 30 30 29 27 24 22 22 23 20 14 13 12 10 12 11 11 12 12 16 26 37 39 34 31 33 35 33 31 30 31 31 30 28 26 22 21 24 30 32 33 34 34 32 30 29 29 30 31
1 2 1 1 1 1 1 1 1 1 1 1 1 2 3 4 5 9 13 18 21 22 23 24 24 23 23 24 21 19 18 16 13 10 9 11 16 23 26 27 31 32 31 29 25 22 22 21 17 10 9 10 10 11 11 11 11 11 15 24 33 36 32 29 31 34 34 32 29 29 31 30 28 27 25 22 20 24 29 31 32 33 34 32 29 28 29 31
2 1 1 1 1 1 1 1 1 1 1 1 1 2 2 2 4 6 8 11 16 22 22 21 23 21 21 25 24 23 20 16 13 10 9 10 14 20 23 25 28 29 29 31 29 25 23 19 14 11 8 8 10 11 11 11 10 10 13 22 30 31 30 30 30 32 36 35 32 31 32 30 29 27 25 24 20 19 23 27 30 33 34 34 31 29 28 31
2 1 1 1 1 1 1 1 1 1 1 1 1 2 2 2 3 3 5 7 10 18 21 20 21 19 20 24 25 25 23 18 14 11 9 10 12 15 19 21 24 26 27 28 27 26 26 20 13 11 10 9 10 10 11 11 11 10 10 16 22 23 27 32 34 33 33 33 31 30 29 28 28 27 25 24 21 18 19 22 27 32 34 35 33 30 29 30
1 2 2 1 1 1 1 2 1 1 1 1 1 2 2 2 3 3 6 7 6 10 16 19 21 19 19 23 25 24 22 20 17 12 10 10 10 13 18 18 19 24 25 22 22 23 23 19 15 13 12 12 12 11 12 12 11 10 9 11 14 17 21 26 32 35 33 30 30 28 26 26 25 25 24 23 20 18 18 18 22 26 31 34 34 31 30 31
2 2 2 1 2 1 1 2 2 2 2 2 2 2 3 3 3 5 9 12 9 6 10 14 18 19 19 22 24 23 21 21 19 15 11 10 10 11 14 17 20 22 19 20 24 24 20 18 19 18 14 14 14 13 10 10 13 13 10 8 10 13 13 17 29 38 35 33 31 29 28 26 25 24 23 21 19 18 18 18 20 23 26 30 33 32 30 32
2 2 2 2 2 1 2 2 2 2 1 2 2 2 4 4 6 10 12 17 14 8 9 13 16 18 19 21 23 23 22 20 19 19 14 11 11 10 12 16 19 18 15 19 25 25 19 17 21 22 18 15 16 16 11 10 19 22 13 8 9 10 9 15 32 41 37 34 32 30 28 27 26 24 23 22 21 19 18 19 21 23 24 26 29 32 32 31
3 3 2 2 2 2 2 2 2 2 2 3 2 3 4 5 12 16 18 24 23 15 14 18 19 19 19 20 22 24 25 20 19 22 19 15 13 11 13 14 14 14 15 18 24 23 17 16 22 25 23 19 16 17 14 11 21 25 14 8 9 10 9 16 33 42 40 38 35 33 31 28 27 25 23 23 22 20 19 18 19 21 23 25 26 29 31 32
3 3 3 3 3 3 3 2 3 2 3 3 3 5 5 9 17 22 25 29 27 21 20 22 23 21 20 21 22 23 24 21 19 22 21 18 16 14 14 14 12 12 12 15 19 18 14 14 16 19 24 23 17 14 11 10 19 23 15 12 12 11 12 21 34 40 39 36 32 30 29 27 26 25 23 22 23 22 20 17 17 18 20 23 26 27 29 31
4 4 3 3 4 4 4 4 3 3 3 3 4 5 6 15 24 29 32 29 22 22 22 22 23 22 21 21 21 24 24 21 18 20 22 21 19 16 15 14 14 14 11 12 15 15 13 12 11 13 20 21 15 13 11 11 17 19 17 19 18 15 17 26 34 34 31 29 28 28 27 25 25 24 23 22 22 22 20 17 17 17 17 20 24 27 28 29
5 4 5 4 4 5 4 5 4 4 3 3 4 5 8 20 28 35 41 30 21 25 23 21 23 22 21 20 20 23 25 22 18 18 21 22 21 20 17 15 18 21 17 13 14 15 13 13 14 16 18 15 12 13 14 14 16 16 19 24 24 23 25 29 32 30 28 28 28 27 27 25 24 24 22 20 20 20 20 18 17 17 17 18 21 24 25 28
6 6 6 5 5 5 4 5 5 4 4 3 4 7 15 29 35 42 44 25 17 25 24 22 24 22 21 20 19 22 24 22 16 17 22 23 22 22 21 21 26 30 26 19 17 17 15 16 18 17 15 15 15 17 18 19 19 19 23 25 25 27 28 29 29 28 29 29 26 24 24 24 23 24 21 18 18 19 19 19 18 17 17 17 18 21 23 26
7 7 7 7 7 6 5 6 5 5 4 3 5 8 20 37 41 41 34 17 16 26 27 25 25 23 22 22 20 20 23 22 15 15 20 23 23 22 21 23 26 30 31 27 22 20 19 19 18 17 15 15 17 21 24 25 24 24 25 26 25 26 26 26 26 26 26 26 21 18 19 20 21 21 19 15 16 18 18 18 18 17 16 17 17 18 21 24
8 8 8 8 8 7 7 6 5 5 4 4 5 7 22 41 44 37 25 17 25 33 31 29 26 25 25 24 23 20 20 22 18 15 18 21 24 23 22 23 24 25 29 30 27 24 24 22 19 20 21 17 17 22 27 28 28 27 26 25 24 24 24 23 23 23 21 20 18 15 15 18 18 15 13 12 13 15 17 18 17 16 16 17 17 17 19 23
10 10 9 9 9 8 8 7 6 6 4 5 4 9 30 45 42 38 31 24 28 32 32 32 28 26 27 27 26 22 20 21 20 18 18 20 24 24 24 27 28 26 26 28 28 26 26 25 21 20 20 18 18 21 22 22 24 25 25 24 23 22 21 20 19 19 17 17 18 17 15 16 15 12 12 12 13 14 15 16 16 16 16 16 17 17 17 22
11 12 11 10 9 9 9 9 8 6 6 6 5 18 44 49 38 41 45 39 36 34 32 33 31 29 29 29 28 24 21 21 20 20 19 20 23 27 27 28 31 31 27 26 27 26 26 25 19 16 16 16 17 20 21 20 22 23 23 23 24 23 20 17 17 17 16 17 20 20 18 16 13 12 12 11 11 12 13 15 15 16 16 16 16 17 17 20
12 14 13 10 9 10 10 10 10 9 8 6 8 23 43 46 39 47 57 55 51 46 37 32 32 32 31 32 31 27 24 22 21 19 19 19 21 26 30 29 31 33 30 26 25 25 26 25 20 17 18 17 17 18 20 21 24 25 25 25 25 24 21 18 18 19 18 18 20 21 18 15 12 10 9 9 9 11 11 13 15 15 16 16 16 16 17 18
13 14 13 11 10 10 10 11 11 11 10 9 14 26 36 41 45 53 61 60 57 55 49 42 37 36 36 36 33 31 29 26 23 19 17 18 20 24 28 30 31 32 32 29 25 24 25 25 22 21 20 18 18 20 20 20 21 24 26 26 25 26 24 22 22 23 20 18 20 20 16 15 15 12 9 8 7 9 10 12 14 15 15 16 16 16 16 16
14 14 13 12 11 11 12 13 12 13 13 13 16 24 36 48 53 58 64 63 58 57 56 52 46 41 42 43 39 34 32 28 24 21 19 21 24 25 27 30 32 31 32 31 28 25 24 23 22 21 20 18 19 23 24 23 22 21 22 24 25 25 26 26 26 25 22 20 20 20 17 16 16 13 12 10 9 9 9 10 12 15 15 15 16 15 15 15
16 14 14 15 15 14 14 14 13 15 17 21 30 44 57 62 61 65 73 71 62 59 59 58 54 47 46 48 45 39 35 33 30 25 23 27 30 31 30 31 32 31 31 31 30 28 25 23 22 21 19 20 22 25 27 26 25 23 22 23 23 22 24 26 26 23 22 21 21 20 18 16 14 11 10 9 9 9 9 9 10 12 14 14 14 15 15 15
17 15 16 19 17 16 17 16 15 21 32 43 58 75 82 78 71 72 80 82 73 68 68 66 63 59 54 52 51 46 41 39 37 34 33 32 34 35 35 35 35 33 32 31 30 29 26 24 24 22 19 21 23 25 25 24 24 24 24 24 23 21 22 24 24 21 20 21 21 20 18 15 11 9 7 6 6 6 7 9 9 9 10 11 12 13 15 15
21 19 20 21 19 19 20 21 24 37 57 69 73 79 84 87 86 79 80 89 85 77 77 74 70 70 66 60 57 52 48 46 43 41 42 40 38 39 39 38 37 35 34 32 31 30 28 26 26 23 21 21 22 21 20 18 18 19 20 22 22 21 20 21 23 22 19 19 21 20 17 15 12 9 8 8 7 6 6 7 7 8 11 12 13 13 15 15
28 27 25 24 25 24 24 36 49 60 76 86 85 83 82 87 93 85 80 89 89 83 81 78 73 72 69 65 62 57 54 53 49 46 47 47 44 44 44 41 37 36 36 34 32 31 30 28 27 24 22 21 21 20 18 17 17 16 17 18 19 21 20 21 23 22 20 20 20 20 19 19 16 12 10 10 9 8 7 7 7 8 11 12 12 13 14 15
36 37 36 32 30 30 36 54 65 66 70 75 81 85 83 84 92 91 86 87 87 83 79 76 74 73 70 67 65 63 58 55 54 54 54 54 52 50 48 44 40 39 39 40 39 35 32 32 30 27 26 23 21 20 19 18 19 19 19 18 18 19 18 19 21 21 20 20 20 20 21 21 17 13 11 11 10 10 9 8 8 8 9 10 12 13 14 14
40 42 46 40 38 46 56 68 74 70 65 62 65 72 73 75 86 94 96 95 90 83 78 76 75 73 71 70 67 66 61 59 63 64 61 60 59 55 52 49 44 40 42 47 46 39 37 37 34 30 30 27 24 22 20 19 19 20 21 21 20 19 16 17 20 20 19 20 18 19 21 19 16 13 12 12 11 10 10 9 9 8 8 9 11 12 13 13
46 46 49 47 53 67 69 72 82 81 73 69 68 69 69 69 76 84 92 99 98 88 80 80 79 73 71 73 72 69 64 62 68 70 67 65 61 58 56 54 49 44 45 49 48 42 41 41 37 33 33 33 32 30 26 22 21 21 20 20 20 19 18 19 19 20 21 21 18 18 19 18 15 14 13 12 11 11 10 10 9 9 9 9 10 11 11 12
55 54 52 50 63 78 75 74 84 84 79 75 70 72 78 83 84 81 81 90 98 95 86 82 80 77 76 75 73 72 67 64 67 68 68 67 63 59 58 55 54 51 48 48 47 43 43 42 39 36 37 40 39 37 32 27 25 24 21 19 20 20 20 19 20 21 22 22 20 18 18 18 16 15 14 13 12 11 10 10 10 9 8 9 9 10 11 11
64 66 64 60 68 76 72 73 80 82 82 76 72 79 85 89 94 92 83 83 90 93 92 90 84 78 78 78 76 76 72 67 66 66 66 67 63 60 58 56 55 54 51 50 48 45 45 44 42 40 42 44 40 36 35 32 30 29 24 20 19 20 20 20 20 21 21 21 22 19 17 17 17 16 15 14 12 12 11 10 10 9 8 8 8 10 11 10
68 72 72 73 76 77 75 77 78 80 80 75 76 85 83 82 94 99 93 89 89 86 84 90 92 86 83 81 78 78 77 71 68 66 64 63 62 60 59 56 55 54 52 51 49 46 45 47 47 45 45 47 42 37 38 37 35 33 29 24 21 19 20 21 21 21 20 20 20 19 17 17 16 16 16 15 13 12 11 11 11 10 9 8 9 9 10 9
70 76 74 74 76 81 87 87 83 81 79 74 76 82 80 78 85 93 95 94 95 92 83 80 87 90 88 86 85 84 82 75 71 68 64 62 60 58 56 54 54 54 52 51 50 47 46 49 50 46 44 45 42 39 38 37 36 35 31 28 24 21 21 22 22 20 19 19 18 17 17 16 15 15 14 14 14 13 13 13 12 11 9 9 9 9 8 8
73 81 81 76 74 80 88 88 83 78 76 78 82 84 81 77 79 83 87 88 91 98 96 88 87 86 84 85 91 95 92 83 76 72 68 63 60 58 56 54 53 53 51 50 49 46 47 49 47 44 43 41 39 38 37 37 37 36 32 28 26 25 24 23 23 22 21 20 19 17 17 17 15 15 14 13 14 14 13 13 13 12 10 9 9 9 10 9
70 78 85 88 85 85 87 88 84 79 77 83 87 82 76 78 81 77 76 82 90 97 99 96 94 92 87 84 85 89 90 85 79 74 69 63 59 58 55 52 50 49 48 47 46 44 45 45 43 44 45 41 38 36 36 36 36 35 31 28 25 24 24 24 24 24 24 23 21 19 19 18 16 15 15 14 14 14 14 14 13 12 11 11 11 11 12 12
66 72 83 92 92 90 88 86 83 83 85 86 84 81 82 89 90 82 79 85 91 97 99 97 95 93 91 90 85 78 75 74 72 70 66 61 55 51 47 43 40 39 39 39 39 40 40 40 44 47 47 44 40 37 37 36 35 33 31 28 25 23 23 24 23 22 24 24 24 23 21 18 16 15 15 14 14 15 14 13 12 11 10 11 12 12 12 13
Wind_Speed
16 15 15 14 14 14 14 14 13 13 13 14 14 14 15 15 15 16 16 17 17 18 18 19 18 18 17 16 15 14 14 13 14 12 7 7 13 18 20 22 24 26 26 26 26 26 24 23 22 19 17 15 13 11 11 10 10 9 8 7 2 3 5 5 4 3 3 5 7 8 7 5 3 3 6 2 1 1 2 2 3 6 11 10 12 15 10 12
16 16 16 16 15 15 15 14 14 14 14 14 14 14 14 14 14 15 15 15 16 16 17 18 18 18 18 17 16 16 15 14 15 10 6 9 14 17 19 23 26 26 27 27 26 26 25 23 21 20 18 17 14 13 13 11 12 9 9 8 2 5 7 7 4 2 1 4 5 7 8 7 5 4 5 4 3 2 2 2 1 5 11 11 12 16 13 12
17 17 16 17 16 16 16 15 15 14 14 14 14 15 15 14 14 14 14 14 14 15 16 17 18 18 19 18 17 16 16 16 15 10 10 12 12 14 17 20 23 23 25 25 24 24 25 23 22 21 20 18 16 15 14 12 13 10 11 8 3 6 8 7 4 3 3 6 5 4 6 8 7 7 6 5 3 2 2 2 1 2 8 10 10 13 14 13
18 17 17 17 17 17 17 17 16 15 15 15 15 15 15 15 15 14 14 13 13 13 14 16 16 17 19 18 17 16 16 17 14 11 12 12 12 14 16 18 20 21 22 24 24 25 26 26 25 24 22 20 18 17 16 14 13 12 11 6 4 7 8 6 5 5 4 5 7 8 7 7 8 10 8 7 4 4 5 4 3 1 4 7 6 9 13 13
19 18 18 18 17 18 18 18 18 17 16 15 15 16 16 16 16 15 14 13 13 12 13 14 15 16 18 18 17 17 16 16 13 12 13 12 13 14 16 18 20 21 22 24 26 27 28 28 28 27 25 23 21 19 17 15 14 14 11 6 5 8 7 6 7 5 2 3 7 10 10 8 8 11 10 8 4 3 5 5 5 5 3 3 2 4 10 13
20 20 19 19 19 18 18 18 18 18 17 16 16 16 17 16 16 16 15 14 13 12 12 13 14 15 16 17 17 16 16 13 8 9 11 11 12 14 16 18 21 23 24 25 27 28 30 31 31 30 27 24 22 20 16 14 15 15 11 9 8 6 7 8 6 3 2 5 9 11 11 9 8 11 13 11 4 1 3 5 6 8 7 4 3 3 7 12
22 21 21 20 20 20 19 19 19 19 18 18 18 18 18 17 16 15 15 15 14 13 12 13 14 14 15 16 15 16 18 14 9 12 12 10 10 12 15 18 21 25 26 27 28 29 31 32 32 30 28 25 22 20 18 16 17 17 12 10 11 8 8 9 4 1 4 7 9 11 11 10 8 9 11 10 6 4 1 3 6 7 7 6 7 5 6 10
24 23 23 23 22 22 21 21 20 20 19 18 19 19 19 18 16 15 14 14 14 14 13 13 13 14 14 14 15 16 12 9 14 19 16 12 11 11 13 17 22 25 26 27 27 27 29 32 33 30 29 26 23 21 19 19 20 18 13 10 11 10 10 9 6 4 4 6 9 12 10 9 9 9 7 4 6 8 5 3 4 4 5 6 8 9 9 12
24 24 25 24 24 24 24 23 22 21 20 19 20 20 20 19 17 15 14 14 15 15 14 14 13 14 14 12 14 11 5 9 15 19 16 14 14 11 11 15 20 24 25 25 25 26 29 31 32 30 29 26 24 22 20 22 21 18 15 13 13 12 12 12 10 7 7 8 9 11 10 10 10 11 8 6 8 12 10 7 5 5 3 4 7 11 12 14
23 24 24 25 25 25 25 25 24 23 22 21 22 22 21 19 18 17 16 15 16 15 14 14 13 14 14 13 13 7 7 15 17 17 15 14 15 12 11 13 17 22 24 25 26 27 28 29 30 30 28 26 24 24 23 23 21 18 16 15 15 15 15 14 13 9 9 10 8 11 10 10 10 11 11 8 9 12 13 12 8 7 5 3 6 11 13 15
23 23 23 24 24 25 26 26 26 25 24 23 23 23 22 20 18 18 17 17 17 16 15 14 14 14 13 13 11 7 11 16 17 17 17 15 15 14 12 11 14 19 22 26 26 26 26 26 28 29 28 26 25 24 25 24 21 19 19 18 16 16 17 17 15 11 11 11 8 11 11 12 12 10 8 7 9 13 14 15 12 9 8 5 6 11 15 16
24 24 24 24 24 25 25 26 26 26 25 25 25 24 23 21 20 19 19 18 18 17 16 15 15 14 14 12 6 7 13 16 17 18 18 17 17 16 15 12 12 16 19 23 25 24 25 26 29 29 27 26 26 24 24 25 24 22 20 20 19 19 19 18 16 13 13 12 9 10 13 16 16 9 5 5 7 12 16 17 16 12 11 9 7 10 14 18
25 25 25 24 25 25 25 26 25 25 25 25 26 25 24 22 21 21 20 19 19 19 18 17 16 15 15 8 4 10 14 14 18 20 19 19 18 18 17 15 15 15 15 17 19 21 24 26 28 28 27 25 25 24 21 21 23 23 22 22 22 21 20 19 17 17 15 13 11 11 13 19 18 11 10 9 8 12 16 18 18 15 13 13 10 8 12 16
26 26 26 26 26 26 27 27 26 25 25 25 26 26 25 24 23 22 21 20 20 20 19 18 17 17 16 7 8 15 15 15 19 20 19 19 19 19 19 18 18 17 17 17 16 19 23 25 26 27 28 27 25 24 21 19 19 20 22 23 24 21 20 20 18 18 15 12 12 12 17 22 18 13 13 11 11 13 16 18 20 19 16 15 13 10 9 12
27 27 27 27 27 28 28 28 27 26 25 25 25 26 26 25 25 23 22 21 21 21 20 20 19 20 18 10 10 15 17 18 17 18 20 20 21 21 19 19 19 20 20 20 19 20 22 24 27 28 29 29 28 25 23 21 19 18 17 18 22 23 21 21 19 18 16 14 13 13 18 22 18 15 14 14 13 13 15 18 20 21 19 17 16 13 10 10
28 28 28 28 28 29 29 29 28 27 26 26 25 26 26 25 25 25 24 23 22 22 21 21 20 21 20 13 13 17 19 19 15 19 23 22 22 22 21 20 21 23 23 24 23 23 24 25 28 30 30 30 30 28 27 25 23 21 18 16 19 22 23 21 18 18 17 15 14 14 19 21 18 16 17 16 15 14 15 18 21 23 22 19 18 16 12 11
29 29 29 29 29 30 30 30 29 28 27 26 25 26 26 26 25 25 25 25 24 23 22 23 22 22 21 16 15 16 18 21 20 21 23 24 25 24 25 24 24 25 25 26 27 26 27 28 30 31 32 33 32 31 27 26 28 26 23 22 21 22 24 22 18 16 15 14 13 14 20 22 17 16 19 20 17 15 16 16 19 23 23 21 19 18 15 13
31 31 30 30 30 30 32 31 30 29 28 27 26 25 25 25 26 26 25 26 26 25 24 23 23 23 21 17 17 16 16 20 22 23 23 25 27 27 27 26 25 26 26 28 29 29 29 31 32 32 35 37 37 37 32 27 32 31 26 25 23 22 25 26 23 17 15 16 15 16 21 22 18 18 21 21 19 17 16 16 18 22 24 22 19 19 17 15
34 33 32 31 31 31 33 32 32 30 29 28 27 26 26 25 25 26 26 26 27 26 25 23 22 22 18 13 15 18 19 20 22 24 25 26 28 30 30 28 28 28 29 30 30 32 32 32 34 36 40 43 43 44 40 35 34 32 29 27 24 23 26 29 27 22 19 19 20 20 22 23 20 20 19 18 19 18 18 18 19 21 24 24 21 19 18 15
35 34 33 32 32 32 33 33 33 32 30 28 28 27 27 26 25 26 25 26 27 27 27 27 25 22 19 16 13 15 19 21 24 26 27 28 30 31 33 32 31 31 32 33 32 33 33 34 40 45 47 46 44 42 40 38 35 30 27 28 28 27 29 31 28 24 22 23 26 25 24 24 21 20 19 19 19 18 19 20 21 21 22 24 22 19 18 15
36 36 35 33 32 32 33 33 33 33 32 30 28 27 27 27 26 26 25 25 25 28 29 28 30 27 22 21 20 18 18 20 24 28 29 31 33 34 35 35 35 35 35 33 32 31 34 40 45 47 46 43 41 40 37 36 35 32 28 26 28 30 33 33 29 25 21 23 29 28 27 27 24 22 23 23 22 19 17 18 21 22 22 23 23 21 18 18
36 36 35 35 33 32 33 33 32 33 32 31 29 28 28 27 27 26 27 25 22 25 30 29 30 30 25 23 24 24 23 22 24 29 32 34 37 38 38 38 38 38 36 33 33 34 37 45 47 43 41 40 38 37 36 35 34 34 31 26 28 32 34 32 30 28 22 22 28 29 29 30 28 26 25 25 24 19 16 16 18 21 23 24 24 22 20 20
37 37 36 35 34 33 33 32 32 32 31 30 28 27 27 26 27 26 28 29 22 22 27 29 29 28 25 25 26 29 30 27 26 31 34 36 39 40 40 40 40 38 36 37 39 39 39 42 45 40 37 38 39 37 35 34 34 35 35 33 34 36 32 24 22 22 19 18 23 24 27 31 30 28 28 26 23 19 16 17 19 21 24 24 24 24 22 21
38 38 37 36 34 32 33 32 31 31 30 28 26 25 26 26 25 26 27 31 29 22 21 26 29 27 24 24 27 31 31 30 30 32 34 38 40 41 42 40 39 40 40 40 41 42 42 38 36 36 38 38 37 38 36 34 35 38 39 40 39 39 37 29 23 21 17 17 21 20 22 30 32 29 29 26 23 21 18 18 21 22 23 24 26 28 25 22
39 39 38 38 36 32 32 31 28 28 28 25 24 24 24 25 23 24 25 27 31 26 20 24 27 26 25 27 28 29 31 33 33 33 35 39 39 40 42 40 40 43 42 40 39 42 44 39 28 25 34 40 37 38 40 37 36 36 40 43 40 37 37 34 30 25 18 17 23 19 14 22 30 29 26 23 22 22 20 20 20 21 22 24 27 28 27 24
40 40 39 38 38 33 31 30 26 26 25 22 22 21 22 22 19 20 23 24 27 23 19 21 21 22 26 28 29 29 31 33 32 36 39 38 38 39 41 43 43 43 42 39 38 41 43 42 34 21 22 33 40 40 40 38 32 30 38 41 38 36 34 33 30 22 15 15 20 18 11 16 27 30 26 20 20 19 18 18 17 16 20 22 25 27 28 27
40 40 39 38 38 36 32 30 27 25 23 19 19 18 18 18 15 16 17 16 15 13 15 17 14 19 22 23 26 30 30 29 30 39 43 39 39 41 41 44 45 44 43 39 38 42 42 41 41 33 22 24 37 42 41 39 31 28 37 39 34 33 34 34 29 22 19 19 23 25 20 19 27 36 35 26 24 22 21 21 17 16 17 18 21 25 28 29
40 40 40 37 36 37 34 31 28 24 22 17 15 16 15 13 11 10 8 6 4 3 9 11 12 17 19 19 24 31 31 26 25 34 42 41 41 43 43 45 45 44 45 43 43 46 44 40 41 41 34 27 33 38 38 39 35 31 35 33 31 30 30 30 26 22 21 20 23 25 20 17 23 36 39 33 32 31 28 26 22 19 19 17 17 20 24 27
39 40 41 39 35 35 33 31 28 24 21 16 13 14 13 10 8 5 2 3 4 4 7 8 10 13 16 16 19 28 34 27 21 25 39 45 43 43 44 44 43 43 44 44 46 46 43 40 37 37 41 38 34 32 31 34 36 35 31 22 21 25 24 22 20 18 17 17 22 22 16 14 18 30 37 35 35 36 33 29 25 22 20 17 16 16 19 24
38 38 40 40 36 33 30 29 27 24 21 15 13 14 11 10 9 6 5 7 5 6 10 12 12 11 12 14 16 24 32 29 19 21 37 46 44 43 42 40 40 40 42 43 45 47 43 38 35 34 38 38 34 31 29 29 30 32 29 17 11 15 17 17 17 16 13 14 21 23 20 15 15 26 36 40 40 36 33 30 27 25 22 18 15 14 18 23
38 37 38 39 37 34 30 26 25 23 19 15 12 12 11 12 12 8 6 10 9 6 9 12 14 13 10 12 14 19 28 28 19 20 36 46 44 44 43 40 39 34 36 43 44 45 44 36 33 35 34 30 30 33 33 29 26 26 25 20 13 10 12 13 14 15 12 10 11 17 21 19 18 23 29 37 41 36 33 31 28 26 22 19 16 14 17 22
38 36 37 38 36 34 30 27 23 20 17 14 12 13 13 12 15 17 11 6 6 7 10 11 13 14 11 10 12 15 23 27 22 18 31 45 46 48 48 45 44 35 30 39 42 40 43 41 36 33 31 29 26 28 32 32 29 26 24 23 18 9 8 11 10 9 11 9 4 6 12 18 27 31 31 35 39 36 33 32 30 27 23 20 18 15 15 19
36 36 36 36 34 32 29 26 23 19 16 12 12 15 16 10 11 22 22 12 5 4 9 11 13 14 10 9 11 14 18 25 25 17 20 37 46 48 49 46 47 41 29 33 38 34 32 38 41 35 30 32 30 28 31 32 32 31 27 26 21 10 6 9 9 5 7 9 9 10 11 16 25 32 36 37 38 38 37 34 31 29 25 22 18 15 15 17
33 34 34 33 32 31 28 25 22 19 16 11 13 16 19 15 8 10 17 21 20 14 11 11 12 14 10 8 10 12 15 19 25 21 16 29 43 45 47 45 43 42 33 29 34 34 23 24 40 43 36 35 34 33 30 27 28 32 30 28 24 18 11 6 6 6 4 3 10 15 13 12 13 17 23 25 26 28 31 33 33 31 27 23 20 18 18 17
30 31 32 31 29 28 27 24 21 19 15 11 14 17 20 19 11 4 6 15 22 22 20 18 15 13 10 10 9 10 14 16 21 24 19 25 38 41 42 42 39 39 37 28 28 35 28 23 35 41 39 38 34 32 31 23 22 28 30 29 27 28 23 7 2 6 3 1 7 15 15 13 11 15 18 19 21 23 24 27 29 30 29 26 24 22 20 18
29 28 28 28 26 25 25 24 22 19 16 12 15 21 24 20 13 8 8 10 13 16 17 19 19 17 15 14 12 10 12 14 17 22 21 21 31 36 36 39 38 38 41 34 26 27 24 23 31 30 31 37 33 30 32 27 23 25 28 32 30 29 27 14 5 5 4 5 7 14 19 19 17 21 24 23 24 25 25 27 28 29 29 27 27 24 19 18
29 28 27 26 24 23 23 23 22 21 18 14 17 22 25 24 18 14 13 13 12 11 10 10 11 12 12 12 14 15 13 12 13 17 21 21 25 33 36 37 38 39 43 40 31 26 20 19 28 29 25 28 30 30 29 29 29 25 27 32 27 20 21 20 10 5 6 7 6 13 20 18 15 19 24 26 28 29 29 30 30 29 28 26 26 24 20 18
30 28 26 24 23 23 22 22 22 21 18 14 20 23 22 23 23 21 19 18 16 13 12 10 8 8 8 7 9 14 13 12 12 15 21 22 20 26 34 35 36 40 44 44 36 29 24 16 16 22 25 23 27 30 27 29 33 29 27 28 23 15 17 22 15 6 8 7 5 9 15 18 22 22 16 15 18 22 25 28 31 32 31 29 27 25 21 18
29 27 25 22 21 21 21 21 21 21 16 11 16 18 18 21 23 22 21 20 18 17 14 10 9 10 10 9 8 10 11 9 10 13 18 19 16 21 29 31 34 38 41 45 40 29 25 20 11 13 19 20 25 31 30 31 33 33 29 24 22 18 16 24 23 11 7 7 5 5 6 14 26 32 29 23 19 18 17 19 24 29 32 31 30 28 24 19
28 26 24 21 20 19 20 20 20 20 13 8 12 14 15 19 21 21 20 18 17 15 12 10 11 11 12 12 11 11 10 7 7 9 11 13 15 18 23 26 28 33 35 39 41 33 25 22 15 13 17 21 27 33 33 34 36 37 32 24 24 22 14 18 25 20 11 6 5 5 6 5 6 10 15 18 19 20 20 18 19 21 23 23 25 29 27 21
27 25 22 20 19 18 18 18 18 16 10 6 10 15 17 17 18 19 19 16 15 13 10 11 12 13 14 13 13 14 13 9 6 6 5 8 12 14 17 20 21 24 27 30 35 35 30 24 19 16 19 23 26 27 27 29 33 36 35 32 30 27 19 12 14 22 22 13 7 5 8 6 4 3 2 1 4 10 15 18 19 18 16 14 16 21 26 26
26 24 21 20 19 16 16 14 12 11 9 7 9 11 14 14 14 17 19 16 14 13 11 11 12 14 14 13 12 14 13 11 10 8 6 7 11 12 12 16 17 16 20 25 29 33 33 28 22 18 18 19 21 21 21 23 29 33 35 37 36 31 28 19 11 18 24 20 14 10 10 13 17 19 13 8 8 7 7 11 14 17 18 16 16 18 22 25
25 21 19 20 18 16 14 11 9 10 10 10 10 10 12 14 14 14 15 15 12 10 11 11 11 11 11 11 11 11 10 9 9 9 8 8 10 11 10 12 13 14 17 21 24 28 29 26 24 20 16 16 16 18 22 25 32 36 34 37 38 35 35 31 24 21 20 19 17 12 10 12 12 10 7 6 7 6 5 6 7 12 17 19 20 20 20 21
25 20 17 18 17 13 11 10 11 12 12 12 10 9 11 14 16 13 11 12 11 9 9 10 11 11 10 9 9 9 9 9 7 7 9 10 10 10 10 9 10 11 15 17 18 21 21 21 23 18 11 13 14 15 22 27 31 35 34 35 38 39 38 37 32 26 21 22 24 17 11 9 9 8 7 5 6 7 7 7 7 8 12 16 19 21 21 21
26 21 17 16 13 9 11 13 13 14 15 14 11 9 10 12 13 12 10 10 10 10 9 8 8 9 9 8 9 8 9 10 8 6 8 10 10 10 9 8 7 8 11 12 13 16 15 16 22 19 10 11 11 11 18 24 24 27 32 34 36 39 39 36 31 25 21 23 29 28 18 12 13 14 11 9 10 9 8 8 9 9 10 13 15 17 20 20
25 23 20 16 8 6 12 13 11 12 14 14 12 10 10 11 9 7 8 10 9 10 12 11 8 7 7 7 8 8 8 10 10 7 7 8 10 11 10 9 7 5 7 8 8 11 12 12 19 22 16 11 9 9 16 25 24 23 27 30 33 35 36 37 33 28 25 24 29 37 33 26 27 24 17 15 14 13 12 9 9 10 9 11 12 14 17 19
23 22 22 19 10 6 10 10 9 11 12 14 15 12 9 11 12 9 6 9 8 6 9 10 9 9 8 7 7 5 6 9 11 10 9 8 9 9 9 9 7 4 4 4 5 8 9 8 12 17 16 14 14 12 15 21 24 23 25 28 30 30 32 37 35 31 30 27 27 37 41 38 41 35 25 20 16 13 12 11 11 11 9 11 12 12 13 14
21 19 19 18 14 12 12 10 10 11 12 12 14 12 10 11 13 12 8 5 8 8 7 7 7 8 9 8 6 5 5 6 8 10 11 11 11 11 10 9 8 7 5 4 4 5 5 4 7 10 11 11 14 15 14 16 18 20 24 28 31 30 30 33 34 35 37 34 31 36 40 41 45 42 36 32 25 19 17 16 16 15 11 12 12 11 11 11
21 19 17 16 16 15 13 12 12 13 13 12 12 12 13 13 13 13 11 6 5 5 6 9 7 5 5 7 6 3 4 6 7 8 11 12 12 12 12 11 10 10 8 6 6 5 3 2 5 8 10 8 9 13 15 16 17 19 23 27 31 33 32 31 32 36 40 41 40 40 39 40 43 41 39 37 34 32 31 29 25 19 15 13 12 13 13 14
20 19 18 17 16 14 13 13 13 12 12 11 11 11 12 12 12 12 12 9 5 3 2 5 8 7 7 6 3 0 1 6 8 8 9 10 11 11 12 12 11 11 11 9 8 7 5 5 7 8 10 10 8 9 12 15 17 21 24 27 29 31 33 33 32 33 35 37 41 42 41 44 44 39 36 35 35 35 36 33 28 24 22 21 20 20 19 18
19 19 18 17 17 16 14 13 13 12 10 9 10 13 12 12 12 13 13 8 3 3 4 3 5 6 7 8 9 7 5 6 8 8 8 9 11 11 12 13 14 14 14 11 10 9 7 8 9 9 10 11 9 8 12 15 16 20 26 31 32 32 34 33 33 32 31 30 35 38 40 42 42 37 35 34 33 33 33 32 32 32 31 30 29 28 24 20
19 18 16 16 17 17 15 14 13 10 9 9 11 13 12 12 13 13 12 8 5 6 8 5 6 6 5 6 9 12 12 12 11 11 11 12 13 13 14 15 15 17 17 15 13 12 11 10 9 6 7 10 11 9 10 11 13 16 22 29 35 37 37 35 35 34 31 28 29 30 31 36 38 35 34 35 34 32 31 32 33 34 33 33 32 30 27 23
Wind_Direction
315 313 311 310 308 307 306 304 304 303 303 302 300 297 293 287 282 278 273 269 266 264 264 264 265 265 266 267 269 272 271 271 268 263 262 244 227 219 212 213 217 215 215 215 213 213 211 211 213 215 216 218 224 231 233 233 241 244 239 248 260 117 132 136 144 178 247 271 266 271 288 299 274 337 357 7 94 237 285 285 220 178 170 165 165 178 197 195
317 314 312 310 308 307 306 305 304 303 303 303 302 301 298 293 288 283 278 273 269 265 263 262 262 262 263 263 263 266 268 268 266 263 257 246 234 226 219 218 221 218 216 216 214 214 214 213 214 215 218 220 219 226 230 235 244 248 252 253 199 127 129 123 106 120 318 330 293 278 282 284 266 276 325 342 8 339 304 337 228 194 181 177 174 178 192 202
317 315 314 312 309 307 305 304 303 303 303 302 303 301 299 298 294 290 285 279 274 268 264 262 260 260 261 261 261 263 264 264 265 263 251 246 240 230 224 223 226 223 221 219 216 215 213 213 215 216 218 219 219 225 229 234 242 246 248 242 178 152 141 125 109 105 63 31 7 330 301 282 262 253 286 313 332 8 350 7 54 222 199 190 185 178 184 200
314 314 313 312 311 308 306 304 303 302 301 301 301 300 299 299 297 296 292 287 281 274 268 264 261 260 260 260 261 261 262 265 264 261 252 243 234 227 221 219 221 221 221 219 214 213 211 209 212 217 219 220 219 223 230 234 239 243 237 221 169 175 159 142 141 124 91 50 31 18 355 309 267 253 273 292 305 19 30 32 63 83 209 199 190 179 177 189
309 309 309 310 309 308 307 305 304 302 301 299 297 296 296 297 298 298 297 295 290 282 274 268 264 261 261 260 259 260 262 266 265 253 248 242 228 222 219 216 213 211 214 216 213 210 208 206 208 212 216 220 221 222 227 233 238 241 233 212 188 182 169 158 147 128 100 26 12 4 350 327 281 262 275 289 307 29 47 54 80 102 128 180 185 184 176 177
304 304 304 304 304 304 304 304 303 303 302 300 296 293 292 293 296 299 301 300 297 291 282 273 268 263 262 261 258 257 254 256 260 239 233 236 228 218 216 214 211 207 208 211 213 211 208 206 207 209 212 215 220 225 229 234 240 243 238 224 208 194 181 165 140 97 353 344 353 346 333 324 294 273 278 280 270 84 63 87 109 112 115 152 176 192 182 169
303 302 302 301 301 300 300 300 300 301 301 301 297 293 291 290 293 298 302 301 299 293 285 276 270 265 265 263 259 256 253 248 234 224 221 228 232 222 214 212 211 209 208 209 211 212 210 207 207 208 210 213 217 222 226 231 240 244 238 222 217 210 181 170 166 267 321 334 336 329 322 321 311 294 287 277 255 242 244 117 127 117 113 141 160 164 180 168
305 303 302 301 300 299 298 297 297 297 298 299 297 294 293 292 293 296 296 295 293 289 284 276 270 267 266 265 261 258 256 237 220 225 227 226 228 221 213 212 212 211 211 212 213 214 214 211 208 207 210 213 217 221 223 228 236 241 234 220 223 218 192 200 227 235 283 313 313 310 317 323 318 306 283 248 259 256 239 202 162 141 111 126 156 161 171 170
308 306 304 302 300 298 297 296 295 295 296 295 294 294 293 294 296 294 289 285 284 284 283 279 275 271 269 267 265 257 216 200 215 224 224 219 217 210 210 212 212 213 213 213 213 214 215 214 209 208 211 213 217 221 224 229 235 240 241 235 232 226 212 224 231 222 266 286 293 303 316 322 316 302 270 223 252 253 239 233 205 190 162 117 157 168 171 172
312 309 306 304 301 299 297 295 294 294 294 292 290 290 291 294 296 292 286 280 278 279 280 281 279 276 273 269 265 250 202 213 220 223 219 213 211 211 216 217 213 214 216 214 212 212 212 213 212 210 213 216 219 222 224 229 235 239 246 243 235 232 224 228 225 219 262 271 283 303 313 314 301 285 267 243 244 243 240 239 222 207 202 154 157 168 174 177
315 313 309 306 304 300 298 295 294 293 292 290 288 287 289 291 291 289 286 281 278 276 277 277 276 276 274 273 269 251 227 224 221 222 221 215 212 214 215 219 218 215 218 218 214 210 206 208 212 213 215 218 221 226 229 232 235 236 244 245 240 241 233 228 227 223 252 262 280 302 301 292 275 266 261 251 244 239 241 243 235 220 207 201 176 170 176 179
317 315 311 309 306 302 299 296 294 293 291 288 286 285 286 287 286 285 284 282 279 276 275 272 271 272 271 275 276 245 233 223 220 219 216 213 210 210 204 201 210 209 215 218 212 205 200 203 208 211 215 219 222 228 234 236 237 237 240 245 244 248 239 226 227 233 248 259 274 289 286 275 263 262 279 268 252 241 239 242 242 232 216 214 196 176 179 181
322 319 316 313 309 305 301 297 296 294 292 289 286 284 284 284 282 281 280 280 279 276 274 270 268 267 269 271 201 224 233 219 220 219 211 207 204 207 202 189 187 187 195 202 201 198 197 202 207 210 215 218 222 226 232 237 240 240 240 244 246 251 243 228 231 242 248 258 265 271 274 271 269 282 288 274 260 247 238 238 242 239 226 220 214 193 184 186
325 324 322 319 315 311 305 301 299 297 295 291 288 285 283 282 279 278 278 276 276 274 272 270 268 264 265 257 196 221 235 225 221 219 213 206 200 204 202 190 181 176 176 175 181 195 200 205 209 213 218 219 222 225 229 235 239 240 240 243 246 251 245 230 232 241 247 259 258 263 269 270 280 300 298 286 272 254 243 239 240 242 235 225 224 216 196 194
325 323 323 321 319 316 311 307 304 301 298 294 291 288 285 283 279 277 275 274 272 270 270 268 267 265 263 249 216 222 231 233 227 216 215 208 200 201 200 195 184 175 175 174 176 189 199 206 212 217 220 220 224 226 229 232 235 235 235 239 242 245 239 229 232 239 250 263 254 254 265 269 284 307 313 306 291 267 249 242 240 243 242 232 228 225 213 201
323 321 321 319 318 316 313 311 309 308 305 300 295 291 288 285 281 277 274 273 270 267 268 266 265 266 264 253 233 228 229 233 224 212 213 207 199 198 196 195 189 181 178 179 181 186 193 201 209 216 218 220 224 226 229 234 234 230 227 231 235 238 236 233 236 239 247 259 255 253 263 272 289 308 316 311 296 279 261 248 241 242 244 239 232 229 225 211
321 320 319 318 317 314 311 311 310 310 310 306 301 295 291 287 283 279 274 271 269 267 265 264 264 263 263 257 242 231 227 226 220 216 213 204 198 195 195 194 192 189 185 185 187 190 195 200 206 211 214 217 221 222 226 232 230 224 223 229 231 232 234 235 236 236 238 249 260 263 264 270 283 300 311 311 298 278 264 255 245 241 241 241 236 231 231 227
319 318 318 316 315 313 310 310 309 309 309 308 305 300 294 289 284 280 275 271 267 266 264 262 260 259 260 257 245 231 221 219 219 220 214 205 199 195 196 196 194 194 192 193 194 196 200 204 208 212 214 215 216 217 217 223 225 221 219 226 232 232 233 236 236 237 239 245 256 265 266 271 282 294 303 307 297 280 267 259 248 243 240 239 237 234 232 234
317 316 315 314 313 312 309 308 308 307 308 308 306 303 300 294 287 280 275 270 267 265 263 259 254 252 254 250 237 228 221 217 217 218 214 207 201 195 196 197 198 200 200 200 201 202 204 207 211 214 215 215 215 216 217 221 226 225 222 226 233 236 236 236 238 243 244 244 251 261 269 276 283 288 296 303 298 284 272 260 247 244 243 240 237 235 233 238
316 314 314 313 312 311 308 307 307 306 306 305 304 304 302 299 293 284 276 270 268 263 257 256 255 249 245 239 226 223 224 220 215 213 211 208 202 198 198 198 199 203 207 208 208 208 208 212 215 216 216 216 217 219 222 224 228 230 229 228 233 238 238 237 239 246 247 249 253 258 265 271 278 282 286 295 295 281 267 258 248 243 244 243 240 237 234 235
314 313 312 311 311 311 309 307 307 305 305 304 304 304 301 300 297 290 281 271 266 265 258 253 253 248 239 233 228 227 228 221 213 208 207 205 203 201 202 202 201 204 208 210 213 214 213 218 221 220 220 220 220 222 224 226 229 232 232 231 234 238 240 240 241 244 247 251 252 256 264 268 274 280 280 282 285 282 269 259 253 247 247 248 246 242 235 231
314 313 311 310 310 311 310 309 308 307 306 305 305 304 302 302 300 297 291 277 261 260 261 252 248 247 239 233 229 227 226 222 214 208 205 203 202 203 204 205 206 207 206 205 211 215 218 223 225 223 223 223 223 224 226 227 229 232 233 234 235 236 240 244 247 248 249 253 255 261 270 271 273 277 275 275 280 286 281 266 260 256 254 253 250 245 238 229
315 313 312 309 309 311 310 310 311 309 308 308 307 304 302 302 303 303 299 290 268 248 256 258 253 247 238 231 225 223 224 223 214 207 204 204 204 205 206 207 208 209 206 204 207 211 217 226 228 225 223 223 224 224 225 226 229 231 231 232 235 235 238 244 250 250 247 250 255 264 273 272 271 272 269 270 276 282 286 277 267 259 255 255 253 250 244 233
316 314 312 309 308 310 309 310 313 311 310 310 307 304 302 300 303 303 301 298 282 256 251 257 255 249 240 230 222 221 226 223 214 209 208 206 204 204 207 209 209 208 210 210 210 212 217 225 230 226 222 223 223 224 224 223 227 230 231 232 235 237 237 240 246 248 249 251 252 263 279 275 269 267 265 266 268 271 277 277 268 260 255 251 248 246 247 241
316 315 313 310 308 308 307 309 314 312 310 310 306 303 300 299 304 302 303 303 292 278 263 254 251 250 244 234 223 218 223 224 215 210 212 210 207 206 207 209 210 210 212 213 213 217 222 225 228 226 223 222 222 225 224 223 225 230 233 233 235 239 240 244 249 253 264 266 257 259 277 276 269 265 264 265 262 262 269 271 267 265 261 254 245 240 243 243
318 316 314 312 309 308 306 307 311 310 309 309 303 298 296 298 302 303 307 305 297 292 275 257 245 240 239 234 224 215 220 227 217 207 210 212 210 211 211 209 210 214 215 213 215 222 226 226 225 224 224 222 222 225 226 223 223 230 235 234 236 241 242 245 248 251 262 266 259 256 257 275 275 266 260 261 259 256 258 263 267 264 259 255 250 243 241 241
321 318 315 314 312 310 308 307 307 309 311 308 299 292 291 295 299 305 312 305 298 292 268 253 230 224 231 230 220 210 214 225 218 208 209 212 210 210 214 214 213 216 215 211 216 225 227 225 224 224 224 220 221 224 226 223 221 230 238 237 236 240 242 244 246 248 256 265 266 263 258 267 273 264 258 254 255 256 252 255 261 263 258 254 250 246 243 242
322 320 317 316 315 313 312 310 308 311 313 306 293 285 284 288 289 300 317 304 289 271 249 238 211 210 218 219 213 206 207 216 218 211 208 211 212 209 213 217 218 220 216 211 216 226 228 225 225 225 221 219 221 224 227 224 222 229 237 240 240 240 243 246 247 250 258 266 266 259 249 251 262 263 261 258 256 256 252 250 254 263 269 262 250 244 242 243
323 321 317 317 317 316 316 315 311 310 310 304 285 273 271 270 264 263 288 262 240 219 227 220 206 209 213 213 207 203 204 210 217 208 202 207 212 210 213 217 219 223 221 217 219 227 231 230 232 230 224 225 229 229 228 226 225 230 236 243 246 243 244 244 242 246 252 255 253 247 235 241 262 262 261 261 257 251 248 249 253 261 272 274 262 248 243 243
322 320 316 315 316 317 317 317 314 310 307 302 281 264 251 239 230 209 204 228 233 229 227 218 207 205 210 208 202 202 204 207 214 201 195 202 207 208 213 216 217 220 222 222 223 227 232 234 234 233 231 235 241 238 233 228 228 233 233 228 226 229 228 229 231 236 247 252 248 244 237 242 267 265 258 256 252 248 249 250 252 258 265 270 266 253 248 246
322 321 316 315 316 317 318 318 317 312 308 298 272 248 233 220 207 196 221 235 238 233 217 211 207 207 212 205 199 203 204 203 206 195 193 198 200 202 206 209 210 214 220 222 223 226 229 232 232 232 235 238 240 241 239 234 227 228 227 215 206 208 209 221 229 228 239 251 245 242 240 237 247 255 257 256 252 250 251 249 249 254 258 263 268 263 255 251
322 320 318 317 318 320 321 321 319 314 309 294 261 233 217 208 209 214 216 223 245 235 208 205 205 206 213 209 203 203 202 202 201 194 195 197 198 200 203 204 202 199 208 217 220 225 225 227 232 235 237 234 229 230 232 231 225 220 217 209 207 204 203 219 222 222 236 243 241 232 227 230 240 249 256 259 258 254 248 246 247 249 253 260 269 272 263 256
323 320 318 318 320 322 321 322 322 316 310 290 254 228 210 204 225 226 219 216 249 239 204 207 203 200 206 209 208 204 201 205 205 198 198 199 199 202 203 206 206 200 202 209 212 218 222 226 230 231 234 233 227 218 215 217 215 211 206 200 199 195 196 217 215 226 250 239 230 223 224 240 251 258 261 260 262 260 253 248 244 244 250 256 263 269 267 258
324 320 318 319 319 321 321 323 324 316 310 286 247 223 209 213 230 229 225 232 245 248 230 223 207 196 205 216 216 210 202 207 208 206 204 199 199 202 203 207 210 208 208 208 209 211 210 221 225 223 225 229 227 222 220 219 215 213 208 203 205 206 205 213 208 218 256 222 199 201 216 241 244 256 264 261 261 263 259 253 247 243 245 251 258 262 263 257
327 321 318 318 317 318 320 323 323 315 309 282 239 219 214 220 227 244 250 239 245 251 245 243 234 220 229 237 230 215 201 202 207 207 206 202 200 201 203 205 209 210 211 210 211 212 211 221 226 223 224 228 227 225 226 223 216 216 213 209 214 216 213 216 227 209 222 297 193 195 217 234 231 245 257 257 258 259 258 257 252 245 242 247 255 258 259 254
327 323 318 315 312 315 317 319 321 316 306 281 246 229 225 226 230 251 264 248 256 268 258 250 249 247 252 249 237 227 210 202 205 203 202 204 203 202 202 204 205 208 212 213 211 210 210 223 229 223 223 227 228 227 222 214 208 208 206 208 216 220 216 217 234 207 215 266 223 212 233 245 251 259 254 249 253 254 254 255 251 246 242 246 253 256 257 251
327 324 318 314 312 314 315 316 318 316 307 283 253 242 235 231 232 247 263 261 264 287 290 267 251 245 253 250 233 227 220 207 200 196 194 196 203 204 202 203 204 205 211 214 216 215 210 221 230 225 223 225 226 228 226 220 215 207 203 207 210 214 218 219 230 227 220 251 236 220 240 247 244 257 258 250 249 249 251 252 251 248 243 245 251 253 251 246
331 328 322 319 317 314 314 315 314 314 314 287 255 250 247 240 236 242 259 265 262 274 289 281 261 246 249 255 230 214 208 204 195 185 184 186 195 200 200 202 204 206 211 212 214 219 217 220 231 226 226 227 221 219 217 218 221 218 218 216 203 194 202 204 213 230 217 235 255 226 238 244 235 236 245 247 245 248 251 251 252 250 244 243 247 249 248 245
334 330 324 322 321 316 314 314 314 318 322 290 259 257 256 251 242 242 257 269 269 271 278 275 264 257 252 258 252 222 204 193 184 177 179 185 189 193 196 199 202 206 211 212 212 215 216 218 221 216 221 223 214 207 201 205 214 219 226 221 206 206 202 195 203 211 204 224 252 231 232 249 250 249 247 245 243 243 248 250 251 250 247 245 245 245 246 247
335 331 328 327 324 320 318 316 317 324 323 277 258 257 258 261 252 248 259 272 273 270 273 268 258 260 261 258 261 252 234 212 186 174 174 184 184 187 195 196 198 206 210 211 212 214 213 215 215 205 207 209 206 204 202 203 207 210 214 206 199 208 205 198 209 211 208 224 234 244 252 245 260 265 255 251 247 243 242 242 244 250 251 248 245 242 242 244
338 335 332 331 329 326 323 322 321 323 321 284 269 263 264 274 270 260 263 271 270 264 265 264 260 266 270 263 262 261 254 252 238 206 178 176 175 180 194 196 194 202 208 208 211 213 211 210 208 200 199 203 207 210 212 215 215 214 212 205 202 204 195 190 213 213 216 226 218 238 267 251 235 260 259 257 255 249 243 236 236 240 237 236 238 238 237 239
343 342 338 335 335 334 329 328 326 322 323 316 302 287 280 285 284 271 268 270 268 260 258 263 264 268 269 263 261 261 257 260 257 240 215 189 180 173 178 189 189 189 195 199 205 211 212 210 208 206 206 208 212 217 219 223 225 224 223 219 213 207 199 198 209 207 210 222 229 243 272 267 264 266 263 262 264 264 257 242 235 232 227 227 232 235 237 237
346 349 342 338 341 341 334 331 334 335 333 322 303 298 295 290 286 276 267 268 266 251 246 251 251 253 255 254 250 246 242 243 244 232 210 189 184 176 160 166 178 178 180 186 194 205 209 208 207 210 217 216 213 217 219 223 224 222 224 224 218 213 211 214 221 217 209 211 214 228 255 254 258 266 263 275 268 247 245 252 244 237 231 227 228 231 233 235
345 349 348 345 345 345 343 347 352 348 342 333 314 297 290 284 283 283 268 258 253 236 220 222 227 232 239 243 239 226 217 219 225 220 205 189 181 182 169 155 160 166 171 175 184 197 203 204 202 202 213 215 212 218 220 222 222 220 221 222 221 223 223 221 222 223 222 216 209 216 239 229 224 238 247 270 267 248 250 253 250 253 243 232 231 231 228 229
344 348 354 355 349 348 357 358 357 348 337 334 329 310 296 286 283 288 278 253 237 229 226 220 215 220 227 232 234 228 215 210 213 219 214 205 194 190 186 174 160 150 158 167 178 189 193 192 193 198 208 208 206 211 212 212 215 220 223 223 224 225 224 221 219 217 222 222 215 219 230 231 235 242 248 253 253 257 265 254 252 265 255 237 234 233 231 235
346 347 353 1 2 355 354 352 349 345 335 334 337 327 316 313 309 305 284 259 230 217 227 231 218 207 209 212 219 227 219 207 210 221 226 223 211 201 200 198 187 157 151 155 160 176 182 180 189 204 218 218 204 188 198 210 214 216 219 222 224 225 224 223 221 217 220 223 224 229 234 243 249 247 249 254 252 258 262 256 267 277 258 235 234 236 237 240
349 349 350 357 3 358 351 347 347 348 339 335 339 339 328 323 327 334 306 269 258 237 223 221 212 206 206 202 205 218 215 211 221 232 239 244 236 221 213 209 209 209 194 178 163 163 167 171 187 204 218 225 216 195 192 210 217 216 217 219 221 222 223 224 222 222 224 223 231 237 237 243 248 248 250 253 252 258 256 248 265 278 264 246 247 247 243 240
349 351 350 348 347 349 351 348 346 347 342 335 337 337 331 329 333 340 342 298 282 292 271 240 214 200 195 185 187 203 208 216 233 239 244 253 254 245 237 233 237 245 249 246 222 187 165 179 202 210 221 224 217 210 209 216 221 221 219 219 219 219 220 223 224 228 229 228 236 243 242 245 250 251 251 251 250 250 244 245 263 275 266 256 254 247 243 247
347 348 350 343 340 345 346 341 340 342 342 338 335 333 329 330 332 332 340 341 311 307 286 262 253 236 201 173 163 176 207 217 229 238 247 259 264 262 260 257 257 255 252 259 258 237 216 241 236 230 236 234 212 214 226 234 238 235 226 221 221 220 221 225 227 229 232 235 241 246 248 250 254 257 258 258 258 258 255 258 266 266 254 247 245 243 247 258
345 343 342 337 338 344 340 336 339 338 340 339 331 327 326 327 325 322 332 342 327 329 321 262 262 268 260 240 218 141 198 214 223 238 252 263 271 277 276 267 264 261 255 261 268 257 251 264 264 267 267 254 222 213 229 237 245 247 238 229 226 225 226 228 230 230 233 237 241 245 249 252 254 259 263 264 265 265 263 264 261 252 244 243 248 256 266 271
344 339 337 330 331 338 336 336 340 336 334 333 324 323 326 328 324 319 327 333 302 332 355 294 268 277 268 258 254 255 255 239 236 247 261 268 269 272 276 273 272 271 266 266 271 267 267 276 282 297 293 269 246 235 242 248 257 258 247 236 232 232 233 233 234 235 236 239 243 244 248 252 254 258 263 266 267 267 265 262 258 254 251 253 258 266 273 277
343 339 335 325 323 329 331 334 340 336 331 327 322 323 327 329 329 327 326 313 278 319 340 310 283 286 272 262 256 250 250 253 257 261 263 267 270 268 270 272 274 276 275 273 273 270 270 280 289 298 295 275 261 262 274 279 274 261 248 240 237 237 240 242 241 239 239 242 246 248 251 254 257 259 262 264 266 265 263 263 264 263 262 263 266 269 273 275